Theta_e
288 288 287 286 286 285 284 284 284 284 283 283 283 284 284 283 282 281 280 279 279 279 278 278 278 278 277 277 277 277 277 277 277 277 277 277 277 277 277 277 277 277 277 278 278 278 279 279 279 279 279 279 279 279 279 279 279 279 279 280 280 280 280 280 280 281 281 282 283 283 283 284 284 285 285 286 287 288 289 290 291 293 293 294 294
288 287 286 286 285 284 284 283 283 283 283 283 283 283 283 282 281 280 279 279 278 278 278 278 277 277 277 277 277 276 276 276 276 276 276 276 276 276 276 276 276 276 276 276 276 277 277 277 277 277 277 277 277 277 278 278 278 278 278 278 278 278 279 279 280 280 281 281 282 282 282 282 282 282 282 283 284 285 286 287 289 290 292 294 295
287 286 285 285 284 284 283 283 283 283 282 283 283 283 282 281 280 280 279 278 278 278 277 277 276 276 276 276 276 276 276 276 275 275 275 275 275 275 274 274 274 274 274 274 274 275 275 275 275 275 274 274 275 275 276 276 276 276 276 276 277 277 277 277 278 279 280 280 281 281 281 281 281 281 281 281 282 283 284 285 286 287 290 293 294
286 286 285 284 283 283 282 282 282 282 282 283 283 282 281 280 280 279 279 278 278 277 277 276 276 276 275 275 275 275 275 274 274 274 274 273 273 273 273 273 273 273 273 273 273 273 273 273 273 273 273 273 273 273 273 273 273 273 274 275 275 276 276 276 277 278 278 279 280 280 279 279 279 279 280 280 281 283 283 284 285 287 289 292 293
286 285 284 283 283 282 282 282 282 282 282 282 282 281 280 279 279 279 278 278 277 277 276 276 275 275 275 274 274 274 273 273 273 273 273 272 272 272 272 272 272 272 272 272 272 272 271 271 271 271 271 272 272 272 272 272 272 272 273 274 274 274 275 275 276 277 278 278 279 279 278 278 278 278 279 279 281 282 284 285 287 289 291 292 293
285 284 284 283 282 282 281 281 281 282 282 282 281 281 280 279 279 278 278 277 277 276 276 275 275 274 273 273 273 273 272 272 272 272 272 272 271 271 271 271 271 271 271 271 271 271 271 271 271 271 271 271 271 271 271 271 271 272 272 273 273 273 274 274 275 276 277 278 278 278 278 278 278 278 278 279 281 282 284 286 288 290 292 293 294
285 284 283 283 282 281 281 281 281 282 282 281 281 280 279 279 278 278 277 277 277 276 275 275 274 273 272 272 272 272 272 272 271 271 271 271 271 271 271 271 271 271 271 271 271 270 271 271 271 271 271 271 271 271 271 271 272 272 272 272 273 273 273 274 274 275 276 277 277 277 277 277 278 278 279 280 281 282 284 287 289 290 292 294 295
284 283 283 282 282 281 281 281 281 281 281 281 280 279 279 278 277 277 278 278 277 276 275 274 273 272 272 272 272 271 271 271 271 271 271 271 271 271 271 271 271 271 271 271 271 271 271 271 271 271 271 271 271 271 271 271 272 272 272 273 273 273 274 274 274 275 276 276 277 277 277 277 278 278 279 280 282 283 285 287 290 291 292 294 296
283 283 282 282 282 281 281 281 281 281 281 280 279 278 278 278 278 278 278 277 276 276 275 273 272 271 272 271 271 271 271 271 271 271 271 271 271 271 271 272 272 272 272 272 272 272 272 272 272 272 272 272 272 273 273 273 273 273 273 273 273 273 274 274 275 275 276 276 276 277 277 277 278 278 280 281 283 285 286 288 290 292 294 295 296
283 283 282 282 282 281 281 281 281 281 280 279 278 278 278 278 278 278 277 277 276 276 275 273 271 271 271 271 271 271 271 271 271 271 271 272 272 272 272 273 273 273 273 273 273 273 273 273 273 273 273 273 273 274 274 274 274 274 274 275 275 275 274 275 275 275 276 276 276 277 277 277 278 278 279 280 282 283 285 286 288 291 294 295 296
283 282 282 282 281 281 281 280 280 280 279 278 278 278 278 278 278 277 276 276 276 276 274 272 271 270 270 271 271 271 271 271 271 271 272 273 273 273 273 273 273 273 273 273 273 273 273 273 273 273 273 273 273 274 274 274 275 275 275 275 276 276 276 276 276 276 276 276 277 277 277 277 278 278 279 280 281 283 284 286 287 289 292 294 295
282 282 282 281 281 281 280 280 280 279 278 278 278 278 278 277 277 276 276 276 275 274 272 270 270 270 270 270 270 270 270 271 271 272 272 273 273 274 274 274 274 274 274 273 273 273 273 273 273 273 273 273 273 274 274 274 275 275 275 276 276 277 277 277 277 277 277 277 278 278 278 278 279 279 279 280 281 282 283 285 286 288 290 293 294
282 282 281 281 280 280 280 280 279 278 277 278 277 277 277 276 276 275 275 275 274 272 270 270 269 269 270 270 270 270 270 270 271 271 272 273 274 274 274 274 274 274 274 273 273 273 273 273 273 273 273 273 273 273 274 274 274 275 275 276 276 277 277 278 278 278 278 278 279 279 279 279 280 280 280 280 281 282 282 283 285 286 288 290 292
281 281 280 280 279 279 279 279 278 277 277 277 277 276 276 275 275 274 274 274 272 270 269 269 269 269 269 270 269 270 271 271 270 271 272 273 274 274 274 274 274 273 273 273 273 273 273 273 273 274 274 274 274 274 274 274 274 274 274 275 276 276 277 277 278 278 278 279 279 279 280 280 280 280 280 280 281 281 282 282 283 284 286 288 290
281 280 279 279 278 278 278 277 276 276 276 276 276 275 275 274 274 273 273 272 270 269 269 269 268 269 269 269 269 269 270 271 270 271 272 273 274 274 274 273 273 273 273 273 273 273 273 274 274 274 274 274 274 274 274 274 274 274 274 275 275 276 276 277 277 278 278 278 278 279 279 279 279 279 279 280 280 280 281 281 282 283 284 286 288
280 279 278 278 277 277 277 276 275 275 275 275 274 274 274 273 273 272 271 269 269 269 269 268 268 269 269 269 268 268 270 270 270 271 272 273 273 274 273 273 273 273 273 274 274 274 274 274 274 274 275 275 275 275 275 275 275 275 275 275 275 276 276 277 277 278 278 278 278 278 279 279 279 279 279 279 280 280 280 282 282 284 285 287 288
279 278 277 277 276 276 276 276 275 274 274 274 273 273 273 272 271 270 269 268 268 268 268 268 268 269 269 269 268 267 269 270 270 271 272 273 273 273 273 273 273 273 274 274 274 274 274 274 275 275 275 275 275 275 275 275 275 275 275 275 275 276 276 276 277 278 278 279 279 279 279 279 280 280 280 280 281 281 281 282 283 285 286 287 289
278 277 277 276 276 275 275 275 274 273 273 273 273 272 272 271 270 270 269 268 268 268 268 268 268 269 269 268 268 267 268 270 270 271 272 273 273 273 273 273 273 273 274 274 274 274 274 275 275 276 275 275 275 276 275 275 275 275 275 276 276 276 276 276 276 277 278 279 279 280 280 280 280 281 281 281 282 282 282 283 283 284 286 287 288
277 277 276 275 275 275 274 274 274 273 273 273 272 272 271 270 269 269 268 268 268 268 267 267 268 269 269 268 268 268 268 269 270 271 272 273 273 274 273 273 274 274 274 274 274 275 275 276 276 275 275 275 275 276 275 275 275 276 276 276 276 276 277 277 277 278 278 279 279 280 280 280 281 281 281 281 281 282 282 283 283 285 286 287 289
277 276 276 275 274 274 275 274 274 274 273 273 272 271 270 269 268 268 268 268 268 267 267 267 268 270 269 268 268 269 269 269 270 271 272 273 273 274 274 274 274 274 275 275 275 276 276 275 275 274 274 275 275 275 275 275 275 275 276 276 276 276 276 277 277 278 278 278 279 279 280 281 281 281 281 281 282 282 282 283 283 285 286 287 289
276 276 275 274 274 274 275 275 274 274 273 273 272 270 269 269 268 268 268 267 267 267 267 267 268 269 269 269 269 269 270 270 270 271 272 272 273 274 274 274 275 275 276 276 276 276 275 274 274 273 273 274 274 275 275 275 275 276 276 276 276 276 277 277 277 278 278 279 279 280 280 281 281 282 282 282 282 283 283 284 284 285 287 288 289
276 275 274 274 274 274 274 274 274 273 272 272 271 270 269 269 269 268 268 267 267 267 267 267 268 268 269 269 270 270 270 270 270 271 271 272 273 274 274 275 275 276 276 276 275 275 274 273 273 272 273 274 275 275 275 275 275 275 276 276 277 277 277 277 278 278 278 279 279 280 280 281 282 282 283 283 283 283 284 285 286 287 288 289 290
275 274 274 273 274 274 274 274 273 273 272 271 270 269 269 269 268 268 268 267 266 267 267 268 268 268 269 270 270 270 270 270 270 271 271 272 273 274 274 275 275 275 275 275 274 273 272 272 272 273 274 274 274 274 274 274 274 274 275 276 277 278 278 278 278 279 279 279 280 280 281 282 282 283 284 284 284 285 285 286 287 288 289 290 290
274 274 273 273 274 274 274 273 272 272 271 270 269 269 268 268 268 268 268 267 267 268 268 268 268 269 269 270 270 270 270 270 270 271 271 272 273 274 274 275 275 275 274 273 273 272 272 272 273 273 273 273 273 273 273 272 272 273 274 275 276 277 278 279 279 279 279 280 280 281 281 282 283 284 284 285 285 285 286 287 288 289 290 291 291
273 272 272 272 273 272 272 271 271 271 270 270 269 269 268 268 267 267 267 267 268 268 268 268 269 269 270 270 270 270 270 270 270 271 271 272 273 273 274 274 274 273 273 272 272 272 272 272 272 272 271 271 272 271 271 271 272 272 273 274 274 275 276 278 279 279 280 280 281 281 281 282 283 284 285 285 286 286 287 288 288 290 290 291 291
272 271 270 270 270 270 270 269 269 270 269 269 268 268 268 267 267 267 267 267 268 268 268 269 269 270 270 270 270 270 270 270 270 271 271 272 273 273 273 273 272 272 272 271 272 272 271 271 271 270 270 270 270 270 270 270 271 271 272 272 273 273 274 275 276 277 278 279 280 281 282 282 283 284 285 286 286 287 287 288 289 289 290 290 290
270 269 268 267 268 269 269 268 268 268 267 267 267 267 268 267 267 267 268 268 268 268 268 269 270 270 270 270 270 270 270 270 271 271 272 273 273 273 272 272 271 271 271 271 271 270 269 269 269 269 269 269 269 269 269 269 270 270 270 271 271 272 273 273 274 275 276 277 279 280 282 283 284 285 286 287 287 287 287 288 289 289 290 290 290
269 267 267 267 267 268 268 268 268 267 267 267 267 267 267 268 267 267 268 268 268 268 269 269 270 270 270 270 270 270 270 270 271 272 272 273 273 272 272 272 271 271 271 271 270 269 268 268 268 268 268 268 268 269 269 269 269 269 270 270 271 271 272 273 274 274 275 276 277 278 279 281 284 286 286 287 287 288 288 288 289 289 290 290 290
268 267 266 266 266 266 267 267 267 266 266 266 267 267 268 268 268 267 268 268 268 268 269 269 270 270 269 269 270 270 270 270 271 272 272 272 272 272 272 272 271 271 271 271 269 267 267 267 267 267 267 268 268 268 268 268 269 269 269 270 270 271 271 272 273 273 274 274 275 276 276 278 281 285 287 287 287 288 288 289 289 289 290 290 291
267 266 265 265 266 266 266 266 266 266 267 267 267 267 268 268 268 268 267 268 268 269 269 270 270 270 269 269 270 270 270 271 272 272 272 272 272 272 272 271 271 271 271 270 267 266 266 266 266 267 267 267 267 267 268 268 268 269 269 269 270 270 271 271 272 272 273 273 274 274 275 276 279 282 285 287 288 288 288 289 289 289 290 290 291
266 265 265 265 265 265 265 265 265 266 266 267 267 267 266 267 267 267 268 268 268 269 269 270 270 270 270 270 269 270 270 271 271 271 271 271 271 271 271 270 270 270 270 268 266 266 266 266 266 266 266 266 266 267 267 268 268 268 269 269 269 270 270 271 271 272 272 273 273 274 274 275 277 279 281 285 287 288 289 289 289 290 290 291 291
266 266 265 265 265 266 265 265 265 265 266 266 266 266 266 266 267 268 268 268 268 269 269 269 269 269 270 270 270 270 270 270 270 271 271 271 271 270 270 269 269 269 268 267 265 265 265 265 265 265 266 266 266 266 267 267 268 268 268 269 269 270 270 270 271 271 272 272 273 273 274 274 275 276 278 280 283 286 288 289 289 290 291 291 291
268 266 265 265 265 266 265 265 265 265 266 266 266 266 267 267 267 268 268 268 268 269 269 268 268 269 269 269 269 270 270 270 270 270 270 270 270 269 268 267 268 268 267 265 265 265 265 265 265 265 265 265 266 266 266 267 267 268 268 268 269 269 270 270 270 271 272 272 272 273 273 273 274 275 276 278 280 283 287 289 290 291 291 291 292
272 269 267 267 266 265 265 265 265 266 266 266 266 266 267 267 268 268 267 267 268 268 267 266 267 267 267 268 269 269 269 269 269 269 269 269 269 268 267 266 266 266 266 265 264 264 264 264 264 265 265 265 265 265 266 266 267 267 268 268 268 269 270 270 270 271 272 272 271 271 272 272 273 273 274 276 278 280 283 287 290 291 291 291 292
272 269 268 267 266 265 265 266 266 266 266 266 266 266 266 266 266 265 265 266 266 265 265 265 266 266 266 266 267 268 268 269 268 268 268 268 267 266 265 264 264 264 264 264 264 264 264 264 264 264 264 264 265 265 265 266 267 267 267 268 268 269 269 270 270 271 271 271 271 271 271 271 271 272 273 274 275 277 280 283 287 290 291 291 292
268 266 266 266 266 266 266 266 266 266 266 266 267 266 266 265 264 264 264 264 264 263 263 265 266 266 266 266 266 267 267 267 267 267 267 267 266 265 263 263 263 263 263 263 263 263 263 263 263 263 264 264 264 265 265 266 266 267 267 267 268 269 269 270 271 271 271 271 270 270 270 270 270 271 271 272 273 275 277 280 283 288 291 292 292
267 266 266 266 266 266 265 265 266 266 267 267 267 266 266 265 265 264 264 264 263 263 263 264 265 265 265 265 266 266 266 266 266 266 266 266 266 264 262 262 262 262 262 262 262 262 262 263 263 263 263 264 264 264 265 265 266 266 267 267 268 268 270 270 271 271 271 270 270 270 270 270 270 270 270 271 272 274 275 278 281 285 289 292 293
268 267 266 266 266 265 265 265 265 266 266 266 266 265 264 264 264 263 263 263 262 261 261 262 263 263 263 264 265 265 265 266 266 266 266 265 264 263 261 261 261 261 261 261 261 261 262 262 262 263 263 263 264 264 264 265 265 266 267 267 267 269 270 271 271 271 270 270 270 269 269 269 269 269 270 270 271 272 274 276 279 283 288 292 293
267 266 266 265 265 265 265 264 265 265 265 265 264 264 263 262 262 262 261 261 261 261 261 261 261 262 262 263 264 264 264 264 264 264 264 263 263 261 260 260 260 260 260 260 260 260 261 261 262 262 262 263 263 264 264 265 265 266 266 266 267 269 270 270 270 270 270 269 269 269 269 269 269 269 269 270 271 271 273 275 277 281 286 291 294
265 264 265 265 265 264 265 265 265 265 264 264 263 263 262 261 261 261 260 260 260 260 260 260 260 261 262 263 263 263 263 262 262 261 261 262 262 261 260 260 260 260 260 260 260 260 260 261 261 262 262 263 263 263 264 264 265 265 266 266 268 269 270 270 270 270 270 269 269 269 269 269 269 269 269 269 270 271 273 275 277 279 285 291 295
265 264 264 264 264 264 264 265 265 264 264 264 263 262 262 262 261 261 260 260 259 259 259 259 260 261 262 262 263 262 262 262 262 261 261 260 260 260 260 259 259 259 259 259 259 259 260 260 261 261 262 262 263 263 264 264 265 265 266 266 268 270 270 270 270 270 269 269 269 268 268 268 268 269 269 270 271 272 273 274 277 279 285 292 296
265 264 264 263 264 264 264 264 264 264 264 263 263 263 263 262 262 261 260 260 259 259 259 259 260 261 261 261 261 262 262 262 262 262 261 260 260 260 260 260 260 260 259 259 259 259 259 260 260 261 261 262 263 263 264 264 265 265 265 267 269 270 270 270 270 270 269 269 268 268 268 268 268 269 269 269 270 271 272 274 277 280 286 293 297
265 265 264 263 264 265 264 263 263 263 262 262 262 263 263 262 262 261 261 260 259 260 260 259 260 261 261 261 261 262 262 262 262 261 261 261 260 260 260 261 261 261 261 261 261 260 260 260 260 261 261 262 263 263 264 264 265 265 265 267 269 270 270 270 270 270 269 268 268 268 268 268 268 268 269 269 270 271 273 275 278 281 287 293 297
265 264 264 263 263 264 264 263 263 262 262 262 262 262 262 262 262 261 261 261 260 260 260 260 260 261 261 261 261 262 262 261 261 261 261 261 261 261 261 261 261 261 262 262 262 261 261 260 260 261 262 263 263 264 265 265 266 266 266 267 269 271 270 270 270 269 269 268 268 268 268 268 268 268 268 269 270 271 273 275 278 282 288 293 297
264 264 263 262 262 262 262 262 262 262 261 261 261 261 261 261 261 261 261 261 260 260 260 260 261 261 261 261 261 261 261 261 261 261 261 261 261 261 261 261 261 262 262 262 262 262 261 261 261 261 262 263 264 264 265 266 266 266 267 268 270 270 270 270 270 269 268 268 268 268 268 268 268 268 268 269 270 271 272 274 276 281 287 293 296
264 264 263 262 261 261 261 261 261 261 261 261 261 260 260 260 261 261 260 260 260 260 260 260 260 261 261 261 261 261 261 261 261 261 261 261 261 261 261 261 261 262 262 262 262 262 262 262 262 262 262 263 263 264 265 266 266 267 267 269 270 270 270 270 270 269 268 268 267 267 267 267 267 268 268 269 269 270 271 272 275 280 287 293 296
264 263 262 262 261 261 260 261 261 261 261 261 261 260 260 260 260 260 260 260 260 260 260 260 260 260 260 261 261 261 261 261 261 261 261 261 261 261 261 261 261 261 262 262 262 262 262 262 263 263 262 263 263 264 265 266 266 266 267 268 270 270 271 270 269 269 268 267 267 267 267 267 267 267 268 268 269 269 270 272 274 279 287 293 295
263 262 262 262 261 260 260 260 260 260 260 261 260 260 260 260 260 260 260 260 260 260 260 260 260 260 260 261 261 261 261 261 261 261 261 261 261 261 261 261 261 261 261 262 262 262 262 263 263 263 263 263 263 264 265 266 266 266 267 268 269 270 271 270 269 269 268 267 267 267 267 267 267 267 267 268 268 268 269 271 272 276 284 291 294
262 262 261 261 261 261 260 260 260 260 260 260 260 259 260 260 260 260 260 260 260 260 260 260 260 260 260 261 261 261 261 261 261 261 261 261 261 261 261 261 261 261 261 261 262 262 262 263 263 263 264 263 263 264 265 266 266 266 267 268 269 270 271 270 269 269 268 267 267 267 267 267 267 267 267 267 268 268 269 270 271 274 280 287 292
263 263 262 262 262 262 262 262 261 261 260 260 260 259 259 259 260 260 260 259 259 260 260 260 260 260 261 261 261 261 261 261 261 261 261 261 261 261 261 261 261 261 261 261 261 262 262 263 263 263 264 264 264 264 265 266 266 266 267 268 269 270 271 270 269 268 268 267 267 267 267 267 267 267 267 267 267 268 268 269 270 272 275 280 287
263 263 263 263 263 262 262 261 261 260 260 260 260 260 259 259 259 259 260 260 260 260 260 260 260 260 261 261 261 260 261 261 261 261 261 261 261 261 261 261 261 261 261 261 261 261 262 262 263 263 264 264 264 265 265 266 266 266 267 268 269 270 271 270 269 268 268 267 267 267 267 267 267 267 267 267 267 267 267 268 269 270 271 274 278
Wind_Speed
38 37 35 36 36 34 33 32 32 31 30 30 28 25 23 20 18 17 15 15 14 14 14 15 15 14 14 14 15 15 14 14 14 14 14 16 17 18 18 19 20 21 23 23 24 25 26 28 29 29 29 30 31 31 31 33 33 33 34 34 34 36 36 29 19 17 28 42 45 40 38 38 37 38 39 39 42 43 43 42 42 43 44 43 44
39 40 37 37 37 35 34 34 33 32 31 29 28 25 22 20 19 17 17 16 16 15 15 15 14 13 14 15 15 15 15 14 14 14 15 16 17 17 17 18 19 21 22 23 24 24 25 27 28 28 27 29 30 31 30 30 30 30 32 34 35 37 36 34 26 17 21 34 41 38 36 36 36 37 37 41 47 49 47 45 44 44 45 45 43
40 40 38 38 37 36 35 34 34 33 31 30 27 25 22 20 19 18 18 17 16 15 15 14 13 13 14 15 15 15 14 14 14 14 15 16 17 18 18 18 19 20 21 22 23 23 24 26 27 26 26 27 29 30 29 29 30 32 34 36 37 37 36 36 33 24 20 27 36 35 28 30 35 37 39 43 47 50 50 51 51 50 49 47 44
40 39 39 38 36 36 36 35 35 33 31 30 27 24 22 20 19 19 18 17 15 14 14 13 13 13 14 15 15 15 14 13 14 15 15 16 17 18 18 19 19 20 21 22 22 23 24 26 26 26 26 28 29 29 30 31 32 33 34 35 35 35 35 36 36 33 27 25 31 34 30 33 39 39 41 43 44 45 48 49 51 52 51 48 46
41 39 39 38 36 36 36 35 35 34 31 29 26 24 22 21 20 19 17 16 14 14 13 13 13 14 15 15 14 14 14 14 14 15 16 16 17 18 18 19 20 20 21 21 21 23 25 26 26 26 26 29 30 30 30 32 32 32 33 33 34 34 34 35 35 36 32 27 30 34 34 36 38 39 41 42 41 41 41 42 45 46 45 45 45
41 39 39 38 36 36 36 36 35 34 31 28 25 24 23 21 20 18 17 16 15 14 14 14 14 14 15 14 14 13 13 14 14 15 16 16 17 18 18 19 19 20 20 21 22 24 26 27 28 28 29 31 32 32 31 32 32 32 33 33 33 34 34 34 34 34 34 32 32 33 34 34 34 36 38 36 35 36 35 36 41 42 41 41 42
39 37 37 37 36 35 36 36 35 33 30 27 25 24 23 21 19 18 17 16 15 15 15 15 14 14 14 14 13 13 13 14 14 15 15 16 16 17 17 18 19 20 21 23 24 25 27 29 30 31 32 32 34 34 33 33 33 33 33 33 33 33 33 33 34 33 32 32 31 30 32 33 32 35 37 35 36 40 37 30 31 38 40 39 38
35 34 34 35 34 34 35 35 33 31 29 27 24 23 22 21 19 18 17 15 16 16 15 14 14 14 14 13 12 12 13 13 14 14 15 14 15 15 16 18 19 20 21 22 24 25 27 29 30 31 32 33 34 35 34 34 34 34 33 33 32 32 32 31 31 31 31 30 29 29 31 31 31 33 35 32 29 32 35 29 27 35 39 34 32
32 32 32 31 33 34 34 33 31 29 28 26 24 23 22 21 19 18 16 15 15 15 14 14 14 13 12 12 11 11 12 13 13 13 13 13 14 15 17 18 19 20 20 22 24 25 27 29 30 31 32 33 35 36 37 36 37 36 34 33 32 31 31 30 28 28 27 25 25 25 24 25 27 29 29 28 24 26 32 30 28 32 31 25 25
33 34 32 31 34 36 34 33 31 30 29 27 25 24 22 20 19 17 15 15 15 14 13 13 12 12 11 10 10 11 12 13 14 13 14 14 16 17 18 20 21 21 21 22 23 25 27 28 30 32 33 35 37 39 40 40 42 42 40 38 36 32 30 30 28 27 24 21 22 23 17 17 26 30 29 31 32 33 34 30 28 30 23 14 16
37 37 34 33 36 36 35 34 32 31 29 27 25 23 22 20 18 16 15 15 14 13 12 11 11 10 10 9 10 11 12 13 13 14 15 16 17 19 20 21 22 22 21 21 23 25 27 28 30 31 33 34 35 37 39 40 42 43 44 43 43 40 37 32 27 25 24 21 23 25 17 16 27 33 33 33 34 32 31 27 26 26 17 7 7
38 37 35 35 37 37 36 35 32 31 29 27 25 23 21 19 17 16 15 14 13 12 11 10 10 10 9 9 9 11 13 14 14 15 16 16 17 19 21 21 22 22 21 22 25 27 29 31 32 32 31 32 34 36 38 39 40 41 43 43 44 45 45 41 34 30 27 24 23 24 21 21 27 32 34 33 32 32 32 29 26 25 18 8 5
38 36 35 37 37 37 37 35 33 30 28 27 25 22 20 19 17 16 15 13 12 11 11 11 11 10 8 8 10 12 14 15 14 15 16 17 18 19 21 22 23 23 22 24 27 30 30 32 34 33 32 32 34 35 37 38 39 39 40 41 41 42 44 45 45 41 38 34 29 26 27 28 29 32 35 35 34 34 33 30 29 28 23 16 14
37 36 36 37 37 37 36 35 32 30 28 26 24 22 20 18 17 15 14 13 12 11 11 11 11 9 8 8 10 13 15 15 14 15 17 18 19 20 22 23 23 23 24 26 29 30 31 33 35 37 38 37 36 36 38 38 37 37 38 38 38 39 40 42 43 43 44 42 37 34 35 35 35 37 38 39 38 36 33 32 31 30 30 29 29
35 35 35 35 36 36 35 34 31 29 27 25 23 22 20 18 17 15 13 12 11 11 10 10 11 9 8 9 11 14 16 15 14 15 17 18 20 21 21 22 22 24 25 26 28 31 33 34 36 39 41 41 39 38 38 39 37 37 37 37 38 40 41 41 41 42 43 41 39 40 40 40 42 41 39 41 42 39 37 38 39 39 38 36 34
33 34 34 34 35 35 35 33 31 29 27 25 23 21 19 18 16 14 12 11 11 10 10 10 9 8 8 10 11 15 17 15 13 15 17 18 20 20 20 22 23 25 27 28 29 32 35 35 37 41 42 42 40 39 39 40 39 37 37 37 37 38 40 42 42 42 42 42 42 44 45 44 44 43 40 41 42 41 38 38 40 38 31 23 20
35 35 35 34 34 34 34 33 31 28 27 25 22 21 19 17 15 14 13 12 11 10 10 9 7 7 9 10 12 15 17 15 13 15 17 18 20 21 21 22 24 26 29 30 31 32 35 36 37 39 41 40 40 40 41 41 39 36 36 36 36 38 39 40 41 42 45 47 49 52 52 51 49 48 47 45 45 45 38 31 32 30 20 14 12
37 37 35 34 33 32 32 31 29 27 25 23 21 19 17 16 15 14 13 12 11 9 8 8 6 7 9 11 12 13 15 14 13 15 17 18 20 22 22 22 24 28 31 33 35 36 35 34 33 35 39 40 41 41 41 40 38 34 34 35 35 36 36 37 39 43 45 47 49 51 53 53 51 51 52 49 48 49 42 34 34 29 17 12 12
39 38 36 34 32 30 29 28 26 24 22 21 19 17 16 14 13 13 12 10 9 8 7 7 6 7 9 11 10 11 13 14 14 14 16 18 20 22 23 22 25 30 32 32 34 32 29 28 31 36 40 40 40 39 38 38 37 35 34 34 32 32 32 33 35 37 37 37 39 41 42 44 45 45 47 48 48 49 47 42 40 33 21 15 14
39 38 36 35 33 31 29 27 25 23 21 19 17 15 14 13 12 12 11 9 7 7 8 6 6 7 8 9 10 10 13 14 14 14 16 18 20 22 23 24 27 31 31 29 30 30 30 32 34 37 39 38 38 39 39 39 40 39 36 33 32 33 34 34 35 37 37 37 38 38 39 40 40 39 40 43 43 44 45 44 43 40 32 26 21
39 38 36 35 34 32 30 27 25 22 20 18 17 15 14 13 12 11 9 8 8 8 6 3 3 5 6 8 10 10 11 13 14 15 16 18 20 22 24 26 29 32 32 32 32 33 34 35 37 37 38 38 39 41 42 43 43 42 38 35 36 39 38 37 37 37 38 37 36 37 37 38 38 38 38 39 39 39 41 42 44 45 42 36 28
41 39 38 36 34 32 30 27 24 22 20 18 17 16 15 13 11 10 9 8 7 6 3 1 1 4 6 8 9 9 10 12 14 15 17 19 20 22 24 27 29 31 32 32 32 32 33 35 37 38 39 40 42 43 42 43 41 38 37 37 40 43 43 40 37 35 35 34 32 33 34 34 35 35 35 35 35 36 38 40 42 44 45 44 39
44 41 40 37 35 33 31 28 26 24 21 20 18 17 15 13 12 10 9 8 7 4 3 2 1 3 5 6 7 8 10 11 13 16 18 20 21 23 25 27 28 30 30 30 30 31 33 35 36 38 41 41 40 39 38 38 36 34 35 37 39 39 38 36 34 32 32 31 30 29 30 31 31 31 31 32 32 32 35 37 39 41 40 41 44
45 43 42 39 37 35 33 31 28 25 23 21 20 18 16 14 12 10 9 8 7 5 4 2 1 2 5 6 7 8 10 11 13 16 18 21 22 24 25 27 28 29 29 29 29 29 31 35 37 39 40 38 35 35 35 34 33 32 34 35 35 32 28 26 27 27 27 26 26 26 28 29 30 29 29 30 31 31 33 34 35 35 34 34 37
46 45 43 39 38 36 33 31 29 26 24 23 21 19 18 15 13 11 9 8 7 5 3 2 1 2 4 6 7 9 11 12 14 16 18 21 22 24 25 27 27 28 27 27 27 28 32 36 36 35 34 32 32 32 31 30 31 32 33 32 29 26 22 20 20 21 22 22 24 25 28 30 31 31 31 31 30 31 32 31 31 31 31 30 31
46 45 42 39 38 36 33 30 28 26 24 23 21 20 18 17 14 12 10 9 7 5 4 2 0 2 5 6 8 10 11 12 14 16 18 20 22 24 25 26 26 26 26 26 26 28 31 32 30 29 29 29 30 30 29 29 30 30 29 28 26 23 22 20 19 18 19 20 22 24 28 31 32 31 31 30 29 30 30 28 27 27 27 26 26
47 44 42 40 38 36 35 32 29 27 25 23 22 20 18 17 15 12 10 9 8 6 4 3 0 3 5 6 8 9 11 12 14 16 18 21 23 24 24 25 24 24 24 25 26 26 27 27 27 27 27 27 27 27 27 28 29 28 26 26 25 23 23 22 21 21 21 22 23 25 28 30 31 30 29 28 28 30 31 30 27 25 25 24 22
48 43 42 42 39 37 36 34 32 30 27 24 23 21 19 18 15 13 12 11 9 7 5 3 1 3 4 6 7 9 10 11 14 17 20 23 24 24 24 24 24 23 24 26 26 25 25 26 26 26 25 25 25 24 24 25 26 26 26 26 25 23 23 23 22 22 22 23 23 24 25 26 27 28 28 27 27 28 30 30 28 25 26 23 17
47 43 42 42 38 35 35 34 32 31 28 25 22 21 19 18 15 14 13 11 9 7 5 3 2 2 4 5 6 7 9 11 15 18 21 21 22 23 24 24 23 23 25 27 27 25 25 25 25 25 25 25 25 24 24 25 25 24 26 26 25 24 23 22 21 21 22 23 23 23 23 23 23 24 25 25 26 27 27 26 25 24 25 22 14
44 41 40 40 37 35 34 32 29 30 29 26 23 20 18 16 14 13 12 10 7 4 3 3 1 2 3 4 5 6 9 12 15 17 19 20 21 22 22 22 22 23 25 26 24 23 23 23 23 24 24 25 25 25 25 26 26 25 26 25 24 25 26 24 23 23 23 24 23 23 22 22 22 22 21 21 22 25 25 26 26 24 21 17 11
41 39 40 39 38 37 36 31 29 29 28 25 24 21 18 15 13 11 10 9 7 5 4 2 1 1 1 2 5 6 9 12 14 16 17 18 20 21 22 21 20 22 24 24 21 21 21 20 21 23 24 24 25 25 26 27 27 27 27 26 25 26 26 25 25 25 25 24 23 22 21 21 20 21 22 20 20 21 22 24 24 23 21 17 11
42 39 41 40 39 39 37 34 31 29 27 24 23 21 17 14 11 11 10 8 6 6 5 3 3 3 3 4 6 7 9 12 13 15 17 18 20 21 22 20 20 21 22 21 19 20 21 20 20 22 23 23 24 26 27 26 27 28 28 27 27 28 29 30 29 27 25 24 23 22 22 21 20 21 22 22 22 20 20 20 21 20 19 17 14
46 42 41 40 39 38 36 35 33 30 28 27 24 20 17 13 11 12 11 8 7 7 6 5 5 5 6 8 9 10 11 12 14 15 17 19 21 22 22 20 20 21 21 20 19 19 20 20 20 22 23 23 24 26 27 27 27 27 27 28 28 30 33 35 31 25 22 23 23 24 24 23 22 22 22 22 21 20 18 18 19 19 15 12 12
51 48 46 44 41 38 37 36 34 31 30 28 25 21 18 15 14 13 11 9 8 7 5 5 5 6 7 9 11 12 12 13 14 15 17 20 21 22 22 21 23 24 24 21 20 19 20 20 21 23 23 24 25 27 28 27 27 28 29 30 30 32 37 35 28 22 22 24 24 24 24 25 24 22 22 21 20 19 18 17 16 14 11 9 9
50 47 44 43 42 39 37 37 35 32 30 28 25 23 20 18 17 15 13 12 11 8 5 5 6 7 8 10 11 12 12 13 13 14 17 19 20 22 23 23 24 25 24 22 21 21 21 20 21 23 24 25 26 27 27 28 28 29 30 32 32 34 35 31 24 22 25 26 26 25 24 25 24 23 22 21 19 16 15 16 16 14 11 9 9
44 40 37 37 38 37 36 35 34 32 30 27 24 22 20 18 16 15 13 12 11 7 4 5 7 8 9 9 9 10 11 12 12 13 15 17 20 24 24 20 20 21 21 22 22 22 22 22 22 24 25 25 27 28 28 29 30 30 31 33 33 32 31 27 24 26 29 27 26 25 24 24 24 23 23 22 20 18 17 17 18 18 15 13 11
44 41 38 36 36 35 34 32 31 30 29 27 23 20 18 16 14 13 11 10 9 7 4 4 7 8 9 9 9 10 11 11 10 11 14 17 22 25 22 18 18 18 19 22 22 23 24 26 25 25 26 26 29 31 31 31 31 31 33 35 33 31 30 31 29 29 29 27 27 27 25 23 23 23 22 20 19 19 19 18 18 18 19 20 16
47 45 42 39 37 36 34 31 29 29 28 26 23 20 18 16 14 12 11 10 8 7 5 5 7 7 8 9 10 10 11 12 12 14 17 20 23 24 22 19 19 19 20 23 24 24 26 28 29 29 29 30 31 32 32 33 33 34 38 39 34 31 33 33 29 28 29 28 28 28 26 24 23 24 23 21 20 19 19 19 17 15 16 17 15
43 42 40 40 38 36 35 33 30 29 28 25 22 21 19 18 16 13 11 11 9 7 6 6 7 6 6 8 10 11 12 13 15 17 19 21 22 22 21 21 20 20 23 25 26 26 27 30 32 32 34 36 37 36 37 37 36 38 41 38 32 32 35 32 28 29 30 29 28 29 28 26 25 24 23 22 21 21 20 20 19 16 14 12 12
41 40 39 39 37 35 35 34 32 30 28 26 24 22 20 19 18 15 14 13 10 8 7 7 6 6 6 7 9 9 9 11 13 14 16 18 20 20 21 21 21 22 24 26 27 28 29 30 32 33 36 41 44 44 45 45 42 41 41 35 30 32 35 32 30 32 32 31 30 30 30 29 27 25 23 22 22 22 22 21 21 21 20 16 15
44 40 38 37 37 35 35 34 32 30 28 26 25 23 21 21 19 17 15 14 12 10 9 9 8 8 7 6 5 5 6 8 10 12 13 15 17 19 20 20 21 23 25 26 29 30 30 31 34 34 36 42 47 49 52 53 51 50 45 35 31 35 36 34 34 35 33 32 32 31 31 31 28 25 24 24 25 24 23 23 22 23 23 21 18
46 42 38 36 37 37 35 33 31 29 27 26 24 23 22 21 19 18 17 15 13 12 11 10 9 9 7 5 3 3 5 8 10 11 13 15 16 18 20 21 22 24 26 27 29 30 30 32 34 34 35 39 43 47 52 55 56 55 49 37 32 36 38 36 38 38 35 33 33 32 32 32 29 26 25 26 26 23 22 22 22 21 21 18 16
47 44 41 39 38 38 36 33 31 29 27 25 24 23 22 21 20 18 17 15 13 13 13 11 9 9 8 7 5 5 7 9 10 11 13 15 16 18 20 22 23 25 27 29 30 30 31 33 35 35 36 38 39 43 49 53 53 55 51 40 33 36 39 39 40 41 39 36 35 34 32 31 28 26 25 25 24 22 21 21 20 20 19 15 12
46 43 41 39 37 36 35 33 31 29 26 25 24 23 22 21 19 18 17 15 14 13 12 11 10 9 8 7 6 7 8 9 10 11 13 14 16 18 20 22 24 26 28 30 32 32 33 34 35 36 38 40 40 42 48 50 49 50 48 39 34 36 40 42 43 43 42 40 39 37 35 31 28 27 25 24 23 22 20 20 20 20 18 13 9
46 44 41 38 36 34 33 31 30 28 26 25 24 23 21 20 20 19 17 15 14 13 12 11 10 9 8 7 7 8 9 9 10 11 13 14 16 18 19 21 24 26 28 30 32 33 34 35 37 37 39 41 42 43 45 47 48 46 42 36 34 36 40 44 45 44 43 42 40 37 35 32 29 28 27 26 24 22 21 21 21 21 17 11 6
47 45 42 39 36 34 32 30 30 28 27 25 24 23 21 20 20 19 17 15 14 13 11 10 9 8 8 8 8 8 9 9 10 12 13 15 16 18 20 21 23 25 27 29 31 33 34 36 37 39 39 40 43 44 44 46 48 45 38 35 36 38 42 48 48 45 44 44 40 37 36 33 29 29 31 28 25 24 23 22 23 23 18 11 6
45 44 41 38 36 34 32 30 30 28 26 25 25 23 21 20 19 18 16 15 13 12 11 10 9 8 7 7 8 8 8 9 10 12 13 15 17 18 20 22 23 24 26 28 29 32 35 36 37 39 40 40 42 43 44 46 48 44 38 38 40 41 45 51 51 46 46 46 41 38 37 34 30 32 33 29 26 25 24 23 25 25 20 12 6
43 42 39 37 36 34 31 30 29 27 25 25 24 23 22 21 19 17 16 14 12 11 10 9 8 7 7 7 7 7 8 9 10 12 13 15 17 18 19 21 23 24 26 27 28 31 33 35 37 39 39 39 41 42 44 46 47 43 39 41 43 43 46 51 52 49 49 47 42 39 39 36 34 35 35 30 27 27 25 24 25 26 21 11 5
42 40 38 36 35 34 32 30 29 26 25 25 24 22 21 21 19 17 15 13 12 10 9 8 7 7 6 6 6 7 7 8 10 12 13 15 17 18 20 21 23 24 26 27 28 30 32 34 36 37 39 40 40 41 43 47 47 42 40 44 46 45 45 50 53 53 51 47 43 41 41 38 36 36 36 33 31 30 27 25 25 25 21 13 4
41 40 37 36 35 33 32 30 29 27 26 25 24 23 22 20 18 17 15 13 11 10 9 7 6 6 5 5 5 6 7 8 9 11 13 15 16 18 20 22 23 24 26 27 28 29 31 33 35 36 38 39 40 41 44 46 45 41 41 45 47 45 44 48 53 54 52 48 44 42 42 40 38 37 37 36 35 32 29 27 25 23 19 16 9
39 37 36 34 33 32 30 29 27 26 26 25 24 23 22 20 18 16 14 13 11 10 8 7 5 4 4 4 4 5 6 8 9 11 13 15 17 18 20 22 23 25 26 28 29 29 30 31 34 36 37 39 40 42 43 44 42 40 41 45 47 45 44 45 50 54 53 48 44 43 42 40 38 37 37 36 36 34 32 29 26 22 19 17 15
Wind_Direction
191 191 190 191 190 189 191 193 195 197 199 202 204 207 210 214 219 223 224 226 229 231 237 244 250 252 252 253 257 260 263 263 264 266 268 270 270 270 272 272 271 271 272 271 268 267 268 269 269 270 270 272 272 272 271 269 266 264 264 263 261 263 265 264 266 271 268 267 270 275 278 280 281 281 282 284 283 283 283 283 283 282 281 278 274
190 191 189 189 190 188 190 192 193 195 197 199 202 205 209 214 218 222 223 226 229 232 238 244 245 245 248 252 255 256 258 260 262 263 264 266 268 269 270 271 272 273 272 272 271 270 270 271 272 274 274 275 275 275 275 274 272 271 269 268 267 266 266 267 268 272 272 271 273 277 279 278 278 280 283 284 282 281 281 282 284 283 280 277 276
190 190 189 188 188 187 189 190 191 193 194 197 200 203 208 213 217 220 224 226 229 234 238 238 237 240 247 250 252 254 255 257 258 260 261 263 266 267 267 268 270 271 271 272 273 273 274 274 275 276 277 277 276 276 276 277 277 276 273 270 269 267 266 267 269 271 274 275 276 278 281 281 279 280 282 282 280 278 277 278 279 280 278 274 273
189 188 188 187 185 186 188 188 189 191 192 195 199 203 206 211 215 219 223 225 227 231 234 234 236 242 246 248 250 252 254 257 260 262 262 263 266 267 268 268 267 269 269 270 273 275 275 275 276 277 277 277 277 275 275 276 275 275 274 270 268 268 268 267 267 267 270 274 275 277 283 283 278 278 280 281 280 277 276 275 274 274 272 268 269
188 187 187 184 183 185 186 186 187 189 190 194 198 201 204 209 214 218 220 223 226 228 231 234 239 243 244 246 248 251 258 264 264 265 265 264 266 267 268 268 268 268 269 270 273 275 275 275 275 276 275 275 274 273 273 274 273 273 272 270 269 269 270 269 267 266 268 272 276 278 281 280 279 279 278 278 279 278 275 271 269 269 267 266 267
187 186 185 183 181 183 183 185 186 188 190 193 197 201 204 207 212 216 218 221 225 229 233 238 243 246 247 249 253 258 267 270 267 269 269 267 267 268 268 269 269 270 272 274 276 276 274 273 272 272 271 269 270 270 270 271 271 270 269 268 268 268 268 268 268 268 268 270 273 277 278 277 279 281 278 275 274 274 274 271 269 268 267 266 264
185 183 182 181 180 180 182 184 185 187 189 192 196 201 205 206 208 212 216 222 228 232 238 243 246 248 250 253 258 264 270 271 271 274 272 268 268 269 270 272 275 276 276 278 277 275 272 271 270 268 267 265 265 265 266 268 269 267 265 265 264 265 266 266 267 268 268 269 270 272 275 276 278 278 278 277 273 271 272 272 272 272 267 263 260
181 178 178 179 178 179 181 183 184 185 188 191 194 199 203 204 207 212 218 225 232 236 240 242 244 247 252 258 264 270 273 275 276 275 270 268 269 271 273 276 279 278 277 277 275 273 271 269 267 265 264 262 260 259 259 262 265 266 265 262 260 261 263 264 265 265 266 268 269 270 273 276 278 280 280 279 273 268 267 266 269 270 263 256 254
176 176 175 175 177 178 178 179 180 183 186 189 193 197 200 204 208 215 221 226 232 237 239 242 244 248 255 264 269 272 274 277 280 275 270 270 272 275 279 280 281 280 278 279 278 276 273 272 270 269 269 269 268 267 264 261 262 263 263 261 258 256 258 260 262 264 264 265 266 267 271 274 278 282 282 279 275 276 280 282 282 277 265 250 249
178 177 174 173 176 176 175 176 179 182 185 189 193 196 199 204 209 214 220 226 231 237 240 242 245 248 255 263 268 271 271 277 281 274 270 275 278 282 285 284 283 282 279 280 281 279 277 276 275 276 278 278 277 276 274 270 267 265 263 262 259 255 253 252 253 255 257 260 260 261 265 269 273 278 281 281 282 284 287 290 292 290 282 259 257
180 179 176 174 174 174 174 176 178 182 186 189 192 196 199 204 208 213 219 224 230 235 239 240 243 245 251 260 268 273 275 280 283 275 273 280 285 287 289 287 285 284 281 282 284 286 285 284 284 283 284 283 281 279 279 276 273 271 269 266 262 259 258 254 248 245 246 250 253 253 254 259 267 273 276 279 282 283 284 285 287 291 289 274 275
179 177 175 172 172 173 174 175 177 181 184 188 192 195 199 202 207 212 216 220 227 233 236 237 237 239 246 259 270 276 281 286 284 277 279 287 290 291 291 289 288 286 285 285 287 288 288 288 287 286 285 285 283 282 282 280 278 274 272 271 266 262 262 260 257 252 249 251 252 250 250 256 263 270 273 276 281 285 287 287 286 287 288 289 295
177 174 173 172 172 174 174 175 177 179 183 188 191 193 197 201 205 210 214 218 223 228 231 231 232 235 244 261 273 279 287 293 287 281 287 293 294 295 292 288 287 286 285 287 288 288 288 288 289 287 287 287 284 283 283 282 281 278 275 274 271 266 264 263 263 262 261 260 261 260 258 261 265 268 271 275 279 282 286 288 287 288 290 291 292
175 173 171 172 172 173 174 175 176 178 182 186 188 191 195 199 203 207 210 214 218 222 227 230 232 239 252 269 279 284 292 299 293 287 294 299 299 299 295 290 289 287 285 284 285 286 288 289 289 288 289 289 286 284 284 282 282 281 278 276 275 273 269 265 262 263 263 261 262 265 264 264 266 267 270 273 273 274 277 281 284 286 285 286 288
173 172 170 171 172 172 173 174 174 177 181 183 185 189 193 196 199 203 206 211 217 222 227 232 238 250 271 286 289 292 299 304 296 291 298 302 304 304 299 294 291 288 286 282 280 283 286 286 287 288 288 288 286 284 285 284 281 280 277 274 272 271 271 268 263 259 258 256 256 260 261 261 261 263 266 268 268 269 270 273 276 278 278 281 283
171 170 170 171 173 173 173 173 173 176 179 181 183 186 190 193 195 197 199 206 215 223 228 236 246 264 286 295 293 294 302 308 301 296 301 306 308 307 302 297 294 291 290 288 284 284 285 285 288 290 291 291 290 288 287 286 282 279 277 276 274 271 271 271 269 263 259 255 253 255 256 255 256 257 258 261 264 267 269 269 269 269 271 276 276
172 171 171 173 173 174 175 174 174 175 177 179 181 184 188 190 191 193 196 201 210 220 230 240 256 278 292 298 294 292 300 312 310 302 305 309 311 310 304 300 298 294 293 293 290 288 287 284 285 289 293 295 296 294 292 291 287 280 276 274 274 272 271 272 273 271 267 263 260 259 259 258 258 257 256 258 261 263 264 265 265 265 267 270 267
172 171 171 172 173 174 176 175 174 174 175 178 181 183 186 188 189 192 196 200 206 216 229 243 266 290 296 300 298 288 296 312 313 304 307 312 313 312 307 303 300 297 296 296 295 291 287 284 286 293 297 299 298 297 297 298 296 289 281 276 273 270 268 268 267 266 266 265 263 264 265 266 266 264 261 262 263 261 258 256 259 262 263 262 261
172 170 169 170 171 172 173 173 173 173 175 179 181 183 186 188 188 191 196 199 202 214 227 244 276 301 304 308 305 290 294 308 310 304 309 314 315 313 311 306 302 300 297 295 295 294 290 290 296 301 302 301 300 300 299 299 297 293 288 283 279 275 274 271 266 264 266 268 267 267 267 268 268 266 264 263 263 260 255 253 256 256 256 260 260
171 169 168 168 169 170 171 173 174 176 178 180 181 184 185 186 188 191 193 192 197 214 227 245 289 317 321 315 308 296 294 302 306 307 311 315 316 316 313 308 303 301 299 298 301 304 304 304 305 307 307 305 303 301 299 297 295 292 287 281 275 275 277 276 273 272 273 273 272 270 269 267 265 263 261 260 260 258 254 252 251 250 250 253 253
168 167 166 166 167 168 170 172 175 177 179 180 180 182 182 185 189 189 186 191 204 219 232 256 312 331 324 306 298 299 300 303 306 309 312 315 317 317 314 309 305 304 305 306 307 308 309 309 308 309 309 307 305 304 303 301 300 296 290 282 277 276 274 270 270 271 270 268 268 269 269 269 266 262 259 258 257 255 254 252 251 249 247 245 244
166 165 165 164 165 166 167 170 173 175 178 179 179 181 181 184 188 187 187 198 212 220 219 213 316 317 309 296 293 300 306 308 310 312 315 317 319 319 316 312 310 310 310 310 310 311 311 309 307 308 309 310 309 309 309 307 305 300 294 290 287 282 275 268 265 266 267 267 267 268 268 267 266 262 258 256 255 252 252 252 253 253 249 244 240
165 164 164 163 164 166 167 170 173 174 177 179 179 180 182 183 188 189 189 198 208 206 182 162 313 311 302 299 302 305 309 313 315 315 317 319 320 321 318 315 315 316 315 313 312 312 310 307 307 309 312 314 313 313 314 314 311 306 299 298 298 292 281 269 261 258 260 263 263 262 263 263 264 262 257 254 254 253 251 252 253 253 249 243 239
164 163 163 163 164 166 168 170 172 174 175 176 177 180 181 182 188 189 185 191 202 198 175 150 11 320 302 303 310 313 315 316 315 316 320 322 323 322 320 318 319 320 318 315 312 309 308 309 311 314 316 316 316 317 318 317 315 312 309 309 312 310 295 275 262 257 257 260 261 262 262 263 262 262 258 254 254 256 254 254 254 253 247 242 239
163 162 161 161 164 165 166 167 169 170 172 174 176 180 179 179 183 185 184 190 197 190 162 124 44 307 303 308 313 317 318 318 318 319 323 325 325 324 322 322 323 323 321 317 311 310 311 312 313 316 317 318 318 318 317 316 316 318 317 316 318 321 314 296 279 269 263 261 261 261 262 263 262 261 258 255 253 255 256 255 255 254 250 246 246
161 160 159 160 162 162 161 162 164 167 170 172 175 178 178 176 178 182 185 188 190 181 155 124 80 302 304 308 313 318 320 321 320 321 325 326 326 326 326 326 327 326 324 320 317 317 317 316 315 316 316 318 319 319 317 318 319 320 321 320 318 317 315 310 302 294 287 280 274 267 263 262 262 261 258 252 248 249 252 252 251 249 247 246 247
159 158 157 157 159 161 160 161 163 166 168 171 174 176 177 177 177 179 184 186 184 173 150 128 185 293 302 307 315 319 320 323 325 327 330 330 328 328 329 330 331 331 328 327 326 325 322 320 319 319 318 318 318 317 317 318 319 319 320 320 318 312 308 305 301 297 294 291 289 286 279 269 261 257 255 251 246 245 246 247 245 243 243 243 245
158 157 157 156 158 160 162 162 163 166 169 171 173 175 177 176 176 181 186 184 175 163 143 132 215 278 300 307 314 318 320 328 334 334 334 333 331 331 334 335 337 336 334 334 334 331 328 327 326 326 325 323 321 320 319 319 319 320 321 321 319 314 310 307 303 298 295 294 294 298 298 288 271 258 253 250 249 249 246 243 242 242 242 241 241
157 156 156 156 156 158 161 162 164 167 168 169 172 176 178 176 177 183 185 175 161 151 143 152 218 277 298 301 310 320 325 331 335 334 334 334 334 335 338 340 341 339 337 339 340 337 337 337 337 336 334 331 329 326 323 321 321 323 326 326 323 320 317 313 307 302 301 301 299 299 302 301 292 276 260 250 248 251 250 245 242 242 241 238 239
154 154 154 154 155 157 159 161 164 167 168 168 171 175 176 174 173 175 178 177 172 163 152 162 219 290 291 298 317 327 329 332 335 336 336 337 338 340 342 344 344 341 342 346 345 342 341 341 340 339 337 335 333 329 325 324 324 323 325 326 326 324 322 319 313 309 307 305 301 299 298 300 302 297 282 263 251 249 249 248 245 243 241 239 239
153 154 155 155 156 158 159 160 164 166 167 168 170 171 174 177 178 178 182 186 186 174 151 136 62 22 12 348 350 348 342 341 342 343 343 343 345 347 348 348 349 347 348 350 348 344 343 340 337 337 336 333 332 328 325 324 324 324 324 324 324 325 325 322 318 315 311 306 301 299 298 298 301 304 300 290 276 261 250 247 245 241 240 238 238
155 155 157 157 158 160 160 161 162 162 162 165 167 167 169 173 178 186 191 189 175 156 135 100 68 69 65 41 26 13 1 356 354 352 351 350 351 354 355 355 355 353 353 353 349 345 344 340 334 332 331 329 328 326 324 322 322 323 323 322 321 324 326 326 322 316 312 311 308 305 304 301 301 301 299 298 294 281 262 249 242 240 240 237 234
157 157 158 158 158 160 160 160 160 160 161 162 163 164 167 167 168 176 182 177 159 147 123 82 73 77 65 47 36 26 15 9 5 1 360 359 359 360 0 0 359 358 359 357 349 342 341 338 333 329 327 325 323 322 321 319 319 320 320 317 315 317 321 324 321 315 314 317 315 312 309 305 302 300 297 295 295 291 279 262 246 238 237 237 235
163 163 163 160 159 160 161 161 161 160 159 160 162 164 169 170 165 165 170 167 162 157 130 87 80 77 65 50 37 27 21 17 13 9 9 9 7 5 4 4 4 3 2 358 349 341 338 334 330 329 326 321 320 321 320 318 319 319 318 315 312 313 318 320 316 313 319 322 318 314 311 307 303 298 295 294 293 292 288 278 262 245 234 235 240
164 163 163 161 160 160 162 162 160 159 158 159 161 163 164 163 159 160 163 160 159 165 153 109 92 82 70 55 39 29 24 21 18 17 16 14 11 11 12 10 3 359 357 354 348 341 335 329 324 324 322 317 316 318 317 317 317 316 315 314 310 308 312 314 311 315 323 322 318 315 312 308 303 297 291 289 287 285 285 281 274 264 244 234 240
156 154 156 159 159 159 160 160 159 158 157 157 159 160 158 155 152 153 152 145 141 145 138 102 93 90 78 65 56 45 31 24 22 21 20 18 16 17 18 10 356 349 347 345 343 338 333 329 324 320 318 316 316 316 315 315 314 311 312 313 309 305 310 314 315 321 324 321 317 316 312 306 302 296 290 286 280 277 277 276 275 271 256 239 235
153 152 155 158 158 158 158 157 156 156 155 155 156 156 154 152 149 145 140 134 130 129 119 91 85 84 69 55 59 55 36 26 28 27 23 21 19 18 15 4 352 347 342 340 339 336 333 331 327 321 317 315 315 317 317 316 311 309 313 314 308 306 316 322 321 322 323 319 316 315 311 305 301 297 292 285 279 276 275 273 274 273 260 245 235
156 156 157 158 158 157 155 153 153 153 153 153 155 155 153 151 150 147 143 140 138 140 137 108 86 75 52 35 40 40 26 20 23 22 19 17 14 11 7 359 353 348 342 339 339 337 334 334 333 329 324 320 316 316 317 316 312 314 319 317 309 312 323 326 324 326 326 322 318 315 309 304 303 300 293 285 281 278 276 274 275 274 262 247 234
152 153 155 156 156 156 155 153 152 153 152 153 155 156 154 152 151 151 150 149 150 156 150 119 92 81 63 40 29 19 12 14 15 12 9 9 7 5 2 357 351 347 344 342 340 337 334 334 334 332 330 328 326 323 322 320 317 318 320 315 309 319 329 330 329 331 330 325 321 318 314 310 306 301 294 286 280 277 275 275 275 275 270 252 228
147 149 153 155 155 155 155 154 153 153 154 156 157 156 155 155 156 156 156 156 159 164 152 129 112 108 93 55 24 5 3 12 13 6 3 3 2 1 359 355 350 347 345 342 341 339 336 334 333 332 333 335 335 333 332 329 325 323 320 313 312 325 332 332 332 334 333 329 326 322 319 316 311 302 295 288 281 278 276 276 274 274 271 256 230
148 149 152 154 154 153 154 154 155 156 157 159 159 157 157 157 158 157 157 158 160 158 147 132 122 119 103 64 23 3 10 18 16 9 5 1 357 356 356 354 351 348 344 342 342 340 337 334 334 333 333 336 338 339 339 338 336 332 326 319 323 333 335 334 336 336 334 333 331 327 322 320 315 305 298 293 288 283 279 275 272 273 272 257 232
150 149 150 153 154 155 154 153 155 157 158 158 158 158 158 158 157 156 157 158 156 150 140 130 121 118 110 86 52 36 33 28 21 13 8 2 357 356 356 354 352 350 347 345 343 340 336 334 333 332 332 334 336 338 338 338 338 336 330 323 328 338 340 338 338 338 336 335 333 329 324 321 314 305 299 294 289 284 279 276 273 275 277 262 230
152 152 153 154 155 156 155 154 155 156 157 158 158 158 158 157 156 156 157 156 152 144 136 127 120 116 109 98 82 60 43 34 25 16 8 2 358 357 356 354 353 353 352 351 349 345 339 336 334 334 335 335 335 337 338 339 339 337 332 327 331 340 342 341 340 340 338 336 332 329 326 321 315 308 300 295 291 288 285 284 283 283 284 271 231
151 151 152 153 153 154 154 155 156 156 157 158 157 156 156 156 156 157 157 154 148 141 133 125 118 112 101 90 76 58 46 36 25 16 8 2 359 357 355 354 354 355 355 355 355 351 345 341 337 336 338 339 340 342 344 344 343 339 335 331 333 340 344 344 343 340 338 336 332 329 327 323 318 312 307 303 304 303 299 296 295 293 290 278 237
150 151 151 151 151 152 153 154 155 156 155 154 153 154 156 157 157 158 157 152 146 139 129 121 115 106 92 79 65 52 42 32 21 13 7 1 358 357 355 354 354 354 355 356 355 353 349 345 341 339 340 342 344 344 345 347 347 345 341 336 337 342 346 346 343 341 340 338 333 329 328 325 321 320 319 316 315 313 308 304 300 296 291 279 242
152 152 152 151 151 151 152 153 156 156 154 154 154 155 157 158 159 159 157 151 145 138 128 119 110 99 85 71 57 46 35 26 17 10 5 1 358 356 355 354 352 352 353 354 355 354 352 349 346 344 342 344 345 345 345 348 350 349 346 343 342 345 349 349 346 344 343 341 338 334 332 329 325 326 327 326 323 319 314 309 303 296 287 272 244
152 152 152 152 152 151 152 155 156 155 155 156 157 158 159 160 160 159 156 151 144 137 128 119 108 96 83 69 54 41 30 21 12 6 3 1 359 356 355 353 350 349 350 352 354 355 354 352 351 349 346 346 346 346 345 348 350 349 347 345 346 348 351 352 350 349 347 345 342 340 338 335 332 333 332 330 329 327 323 316 310 302 290 270 239
151 152 153 153 152 152 153 155 155 155 156 159 160 160 161 160 160 158 155 150 143 136 128 117 106 94 79 66 53 38 26 17 10 5 3 1 358 356 354 352 350 348 347 348 351 354 354 354 353 352 350 348 347 346 347 349 350 348 346 346 347 349 353 354 354 353 351 349 347 346 344 342 340 340 338 334 332 332 327 318 312 307 299 281 230
153 153 153 153 154 154 155 156 156 157 159 161 162 163 162 161 160 157 153 148 143 136 126 114 106 93 77 65 51 33 22 14 7 3 2 1 358 356 354 352 351 349 347 347 348 351 353 354 354 353 352 350 348 348 350 352 352 349 347 346 347 350 354 356 356 356 355 353 351 351 350 348 347 346 346 344 341 337 330 320 313 311 311 309 282
156 156 155 156 157 157 158 158 159 160 163 164 165 165 164 162 159 155 153 150 144 136 126 116 107 92 73 61 45 26 17 10 3 2 2 1 358 356 354 352 351 350 348 347 347 348 350 352 353 354 354 352 351 351 353 354 352 349 346 345 347 351 355 357 358 359 359 357 355 355 354 353 352 352 353 353 350 344 336 326 319 318 323 329 331
156 157 157 158 158 158 158 159 161 164 167 168 167 166 165 162 159 158 157 154 147 139 130 122 110 95 77 57 34 18 10 4 1 2 3 1 358 356 354 352 351 349 348 348 348 347 349 351 353 353 354 353 352 352 354 355 353 349 346 345 348 353 357 357 359 0 1 1 360 359 358 357 356 356 356 356 355 350 342 333 327 327 333 338 343